Powrót do katalogu

STARLINK-34982

AktywnyŁącznośćSSO
NORAD 65243·PAYLOAD·🇺🇸 United States

Wystrzelony Aug 18, 2025 z Vandenberg Space Force Base

Loading…

Następne Przeloty (najbliższe 24 godziny)

TLE

ŚwieżeSource: CelesTrak SupGP

Epoka: Sep 14, 2026, 21:30 UTC

1 65243C 25179J   26257.89631944  .00019807  00000+0  61505-3 0  2571
2 65243  97.2826 297.2846 0001351 117.2249 224.9846 15.33419176    16

Śledź STARLINK-34982 w czasie rzeczywistym z AllMySat

Download on the App Store